Regional Weather Roundup
Issued by NWS

Home | Current Version | Previous Version | Graphics & Text | Print | Product List | Glossary On
Versions: 1 2 3 4 5 6 7 8 9 10 11 12 13 14 15 16 17 18 19 20 21 22 23 24 25 26 27 28 29 30 31 32 33 34 35 36 37 38 39 40 41 42 43 44 45 46 47 48 49 50
000
ASUS43 KBIS 301702
RWRND

NORTH DAKOTA REGIONAL WEATHER ROUNDUP
NATIONAL WEATHER SERVICE BISMARCK ND
1200 PM CDT SAT JUL 30 2016

NOTE: "FAIR" INDICATES FEW OR NO CLOUDS BELOW 12,000 FEET WITH NO
SIGNIFICANT WEATHER AND/OR OBSTRUCTIONS TO VISIBILITY.


NDZ001>003-009>011-017-301800-
NORTHWEST NORTH DAKOTA

CITY           SKY/WX    TMP DP  RH WIND       PRES   REMARKS
WILLISTON      SUNNY     81  55  40 S7        29.87F
MINOT          SUNNY     83  58  42 CALM      29.87F
MINOT AFB      SUNNY     78  61  55 VRB1      29.86F
$$

NDZ018>021-031>035-040>046-301800-
SOUTHWEST NORTH DAKOTA

CITY           SKY/WX    TMP DP  RH WIND       PRES   REMARKS
BISMARCK       PTSUNNY   76  65  68 S17       29.89F
DICKINSON      SUNNY     78  54  43 VRB3      29.88F
GARRISON         N/A     75  64  68 CALM      29.88F
HETTINGER ARPT MOSUNNY   83  56  39 VRB5      29.91F
$$

NDZ004>008-012>016-024-026-027-054-301800-
NORTHEAST NORTH DAKOTA

CITY           SKY/WX    TMP DP  RH WIND       PRES   REMARKS
GRAND FORKS    PTSUNNY   79  62  56 S17       29.93F
GRND FRKS AFB  SUNNY     78  65  63 S15       29.93F
DEVILS LAKE    CLOUDY    75  64  68 S7        29.93S
$$

NDZ022-023-025-028>030-036>039-047>053-301800-
SOUTHEAST NORTH DAKOTA

CITY           SKY/WX    TMP DP  RH WIND       PRES   REMARKS
FARGO          MOSUNNY   78  62  57 S9        29.97F
JAMESTOWN      CLOUDY    70  62  76 S9        29.94F
$$





USA.gov is the U.S. government's official web portal to all federal, state and local government web resources and services.